Location: ?????????
(41.2286°N, 23.0068°E)
Time: 01:14:52
(UTC+00:00)

Meteor 2-21 - Pass Details

Date: 08 November 2025
Orbit: 933 x 966 km, 82.5° (Epoch: 07 December)

Event Time Altitude Azimuth Distance (km) Brightness Sun altitude
Rises 03:04:15 0° 190° (S) 3,611 7.4 -23.4°
Reaches altitude 10° 03:06:44 10° 191° (S) 2,665 6.7 -23.0°
Maximum altitude 03:12:50 79° 277° (W) 966 4.3 -21.8°
Drops below altitude 10° 03:18:56 10° 5° (N) 2,661 6.8 -20.7°
Sets 03:21:25 0° 7° (N) 3,606 7.5 -20.2°
